[Iaude] MPEC L73: 2024 LK1 [a=0.87,e=0.25,i=27.6,H=24.2]
    mpec at cfa.harvard.edu 
    mpec at cfa.harvard.edu
       
    Thu Jun  6 18:47:48 EDT 2024
    
    
  
M.P.E.C. 2024-L73                                  Issued 2024 June 6, 22:46 UT
     The Minor Planet Electronic Circulars contain information on unusual
         minor planets, routine data on comets and natural satellites,
         and occasional editorial announcements.  They are published
    on behalf of Division F of the International Astronomical Union by the
          Minor Planet Center, Smithsonian Astrophysical Observatory,
                          Cambridge, MA 02138, U.S.A.
			  
             Prepared using the Tamkin Foundation Computer Network
                              MPC at CFA.HARVARD.EDU
            URL https://www.minorplanetcenter.net/    ISSN 1523-6714
                                    2024 LK1                                    
Observations:
     K24L01K  C2024 06 05.40698316 50 58.468-08 48 47.37         19.34GVEL073F52
     K24L01K  C2024 06 05.42772216 50 44.061-08 41 59.33               VEL073F52
     K24L01K*1C2024 06 06.33474316 41 09.884-03 48 48.92         19.29GVEL073G96
     K24L01K 1C2024 06 06.33958216 41 06.734-03 47 16.76         19.29GVEL073G96
     K24L01K 1C2024 06 06.34440416 41 03.592-03 45 44.86         19.35GVEL073G96
     K24L01K mC2024 06 06.37444216 40 43.907-03 36 09.68         19.45GVEL073I52
     K24L01K mC2024 06 06.37463516 40 43.799-03 36 06.19         19.85GVEL073I52
     K24L01K mC2024 06 06.37482816 40 43.669-03 36 02.38         19.28GVEL073I52
     K24L01K mC2024 06 06.37502116 40 43.576-03 35 58.56         19.43GVEL073I52
     K24L01K KC2024 06 06.43705916 40 03.490-03 16 14.60         19.54GVEL073I52
     K24L01K KC2024 06 06.43764716 40 03.060-03 16 03.50         18.98GVEL073I52
     K24L01K  C2024 06 06.43919116 40 01.990-03 15 35.59         19.4 GVEL073H01
     K24L01K  C2024 06 06.44261516 39 59.814-03 14 30.27         19.5 GVEL073H01
     K24L01K  C2024 06 06.44577716 39 57.801-03 13 29.87         19.3 GVEL073H01
     K24L01K  C2024 06 06.44883216 39 55.868-03 12 31.65         19.4 GVEL073H01
     K24L01K KC2024 06 06.47186516 39 48.703-03 02 51.54         19.6 GVEL073474
     K24L01K KC2024 06 06.47264016 39 48.206-03 02 36.60         19.7 GVEL073474
     K24L01K KC2024 06 06.47341316 39 47.707-03 02 22.20         19.3 GVEL073474
     K24L01K KC2024 06 06.47418516 39 47.189-03 02 07.30         19.7 GVEL073474
     K24L01K KC2024 06 06.87844 16 35 43.36 -00 57 47.1          19.1 GVEL073C82
     K24L01K KC2024 06 06.88441 16 35 39.49 -00 55 54.1          19.1 GVEL073C82
     K24L01K 1C2024 06 06.88749 16 35 37.45 -00 55 11.6          20.1 VXEL073033
     K24L01K 1C2024 06 06.88790 16 35 37.20 -00 55 03.9          20.1 VXEL073033
     K24L01K 1C2024 06 06.88831 16 35 36.95 -00 54 56.2          20.1 VXEL073033
     K24L01K 1C2024 06 06.88871 16 35 36.74 -00 54 49.3          20.1 VXEL073033
     K24L01K KB2024 06 06.90027216 35 28.312-00 51 06.37         19.6 GXEL073M45
     K24L01K KB2024 06 06.90228016 35 28.533-00 50 35.33         19.1 GXEL073B72
     K24L01K KB2024 06 06.90385616 35 26.052-00 49 59.81         19.4 GXEL073M45
     K24L01K KB2024 06 06.90606416 35 24.657-00 49 19.32         19.4 GXEL073M45
     K24L01K KB2024 06 06.91061816 35 21.751-00 47 54.05         19.3 GXEL073M45
     K24L01K KB2024 06 06.91102116 35 23.041-00 47 52.92         19.6 GXEL073B72
     K24L01K KB2024 06 06.91976416 35 17.560-00 45 09.84         19.5 GXEL073B72
     K24L01K KC2024 06 06.92544216 35 13.53 -00 43 17.3          20.2 GVEL073L01
     K24L01K KC2024 06 06.92741716 35 12.29 -00 42 40.7          19.9 GVEL073L01
     K24L01K KC2024 06 06.92988416 35 10.72 -00 41 55.1          19.9 GVEL073L01
Observer details:
033 Karl Schwarzschild Observatory, Tautenburg.  Observers C. Heogner, F.
    Ludwig, M. Hartmann, B. Stecklum.  Measurer B. Stecklum.  1.34-m f/3
    Schmidt + CCD.
474 Mount John Observatory, Lake Tekapo.  Observers A. C. Gilmore, P. M.
    Kilmartin.  Measurer P. M. Kilmartin.  1.0-m f/7.7 Reflector + CCD.
B72 Soerth Observatory.  Observer B. Koch.  0.36-m f/7.6 reflector + CMO.
C82 Osservatorio Astronomico Nastro Verde, Sorrento.  Observer N. Ruocco.
    0.35-m f/6.3  Schmidt-Cassegrain + CCD.
F52 Pan-STARRS 2, Haleakala.  Observers J. Herman, T. Lowe, P. Minguez, A.
    Schultz, I. Smith.  Measurers K. Chambers, T. de Boer, J. Fairlamb, H.
    Gao, M. Huber, C.-C. Lin, E. Magnier, Y. Ramanjooloo, R. Wainscoat, R.
    Weryk.  1.8-m Ritchey-Chretien + CCD.
G96 Mt. Lemmon Survey.  Observer G. J. Leonard.  Measurers T. Beuden, V. F.
    Carvajal, D. Fay, J. B. Fazekas, D. C. Fuls, A. R. Gibbs, A. D. Grauer, H.
    Groeller, J. K. Hogan, R. A. Kowalski, S. M. Larson, G. J. Leonard, D.
    Rankin, R. L. Seaman, F. C. Shelly, K. W. Wierzchos.  1.5-m reflector +
    10K CCD.
H01 Magdalena Ridge Observatory, Socorro.  Observers W. H. Ryan, E. V. Ryan.
    Measurer W. H. Ryan.  2.4-m f/8.9 Ritchey-Chretien + CCD.
I52 Steward Observatory, Mt. Lemmon Station.  Observer D. Rankin.  Measurers
    T. Beuden, V. F. Carvajal, D. Fay, J. B. Fazekas, D. C. Fuls, A. R. Gibbs,
    A. D. Grauer, H. Groeller, J. K. Hogan, R. A. Kowalski, S. M. Larson, G.
    J. Leonard, D. Rankin, R. L. Seaman, F. C. Shelly, K. W. Wierzchos.  1.0-m
    prime focus + CCD.
L01 Visnjan Observatory, Tican.  Observer K. Korlevic.  1.0-m f/2.9 reflector
    + CCD.
M45 Starhopper Observatory, Sfantu Gheorghe.  Observer F. Ursache.  0.41-m
    f/7.5 reflector + CMO.
Orbital elements:
2024 LK1                                                 Earth MOID = 0.0745 AU
Epoch 2024 Mar. 31.0 TT = JDT 2460400.5                 MPC                     
M 116.90732              (2000.0)            P               Q                  
n   1.20573498     Peri.  171.46252     +0.41566363     -0.79404710             
a   0.8742483      Node   252.95178     +0.80467613     +0.54835615             
e   0.2509961      Incl.   27.63959     +0.42393404     -0.26228750             
P   0.82           H   24.20          G   0.15           U   6                  
Residuals in seconds of arc
240605 F52  0.1-  0.0     240606 H01  0.1+  0.1+    240606 033  0.8+  0.7-
240605 F52 (0.7-  0.8+)   240606 H01  0.0   0.2+    240606 M45  0.1+  0.2+
240606 G96  0.4-  0.4+    240606 H01  0.1+  0.1+    240606 B72  0.4+  0.1+
240606 G96  0.0   0.1-    240606 474  0.1+  0.0     240606 M45  0.2+  0.0
240606 G96  0.4+  0.4-    240606 474  0.2+  0.2+    240606 M45  0.2+  0.7-
240606 I52  0.3-  0.2+    240606 474  0.2+  0.1-    240606 M45  0.3-  0.2-
240606 I52  0.0   0.0     240606 474  0.1-  0.1+    240606 B72  0.3+  0.3-
240606 I52  0.1-  0.1+    240606 C82 (0.8+  1.1-)   240606 B72  0.3+  0.1+
240606 I52  0.4+  0.2+    240606 C82  0.5-  0.6+    240606 L01  0.0   0.1-
240606 I52  0.0   0.6-    240606 033  0.0   0.2-    240606 L01  0.1+  0.3-
240606 I52  0.8-  0.7-    240606 033  0.1+  0.2-    240606 L01  0.1-  0.6-
240606 H01  0.1+  0.0     240606 033  0.2+  0.1-
Ephemeris:
2024 LK1                 a,e,i = 0.87, 0.25, 28                  q = 0.6548
Date    TT    R. A. (2000) Decl.     Delta      r    Elong.  Phase     V
2024 05 07    21 21 31.7 -64 37 45   0.2396  1.0864   102.5    65.1    23.6
...
2024 05 22    19 43 34.0 -57 25 53   0.1335  1.0937   124.6    49.6    21.9
...
2024 05 30    18 08 05.3 -39 55 19   0.08759 1.0918   152.1    25.8    20.3
...
2024 06 05    16 55 23.4 -11 01 37   0.07465 1.0879   168.5    10.7    19.4
2024 06 06    16 44 40.3 -05 35 17   0.07541 1.0870   162.7    16.1    19.6
2024 06 07    16 34 29.0 -00 19 06   0.07702 1.0860   156.7    21.7    19.9
...
2024 06 13    15 44 44.8 +23 46 52   0.1006  1.0791   127.0    48.7    21.2
...
2024 06 21    15 03 33.2 +38 34 44   0.1501  1.0664   105.6    66.6    22.6
...
2024 07 06    14 26 44.3 +47 54 09   0.2507  1.0323    86.5    79.5    24.0
A. U. Tomatic                (C) Copyright 2024 MPC           M.P.E.C. 2024-L73
    
    
More information about the Iaude
mailing list